Weather History for Marathon, FL

Change the Weather History Date:

Friday, July 5, 2013

  Actual Average Record
Temperature  
Mean Temperature 83 °F 85 °F  
Max Temperature 89 °F 91 °F 93 °F (2002)
Min Temperature 77 °F 79 °F -45 °F (2005)
Degree Days  
Heating Degree Days 0 0  
Month to date heating degree days 0 0  
Since 1 June heating degree days 0 0  
Since 1 July heating degree days 0 0  
Cooling Degree Days 18 20  
Month to date cooling degree days 99 100  
Year to date cooling degree days 2545 2237  
Since 1 June cooling degree days 715 694  
Growing Degree Days 32 (Base 50)    
Moisture  
Dew Point 73 °F    
Average Humidity 69    
Maximum Humidity 79    
Minimum Humidity 59    
Precipitation  
Precipitation 0.76 in 0.13 in 0.76 in (2013)
Month to date precipitation 1.63 0.74  
Year to date precipitation 30.64 18.29  
Snow  
Snow 0.00 in - - ()
Month to date snowfall 0.0  
Since 1 June snowfall 0.0  
Since 1 July snowfall 0.0  
Snow Depth 0.00 in    
Sea Level Pressure  
Sea Level Pressure 30.07 in    
Wind  
Wind Speed 8 mph (ESE)    
Max Wind Speed 22 mph    
Max Gust Speed 33 mph    
Visibility 7 miles    
Events Rain , Thunderstorm    
T = Trace of Precipitation, MM = Missing Value Source: NWS Daily Summary

Daily Weather History Graph

Daily Weather History Graph

Search for Another Location

Airport:

Trip Planner

Search our weather history database for the weather conditions in past years. The results will help you decide how hot, cold, wet, or windy it might be!

Date:

Astronomy

Jul. 05, 2013 Rise Set
Actual Time 6:40 AM EDT 8:17 PM EDT
Civil Twilight 6:14 AM EDT 8:42 PM EDT
Nautical Twilight 5:44 AM EDT 9:13 PM EDT
Astronomical Twilight 5:12 AM EDT 9:45 PM EDT
Moon 4:32 AM EDT (7/5) 6:16 PM EDT (7/5)
Length of Visible Light 14h 28m
Length of Day
13h 37m
Waning Crescent, 6% of the Moon is Illuminated
Jul 5
Waning Crescent
Jul 8
New
Jul 15
First Quarter
Jul 22
Full
Jul 29
Last Quarter

Hourly Weather History & Observations

Time (EDT) Temp. Heat Index Dew Point Humidity Pressure Visibility Wind Dir Wind Speed Gust Speed Precip Events Conditions
12:53 AM 84.0 °F 90.2 °F 73.0 °F 69% 30.11 in 10.0 mi SE 9.2 mph - N/A   Clear
1:53 AM 84.0 °F 90.2 °F 73.0 °F 69% 30.08 in 10.0 mi SE 8.1 mph - N/A   Scattered Clouds
2:53 AM 84.0 °F 89.6 °F 72.0 °F 67% 30.06 in 10.0 mi SE 11.5 mph 18.4 mph N/A   Partly Cloudy
3:53 AM 84.0 °F 90.2 °F 73.0 °F 69% 30.04 in 10.0 mi SE 8.1 mph 16.1 mph N/A   Partly Cloudy
4:53 AM 84.0 °F 90.2 °F 73.0 °F 69% 30.04 in 10.0 mi SE 8.1 mph - N/A   Clear
5:53 AM 84.0 °F 90.2 °F 73.0 °F 69% 30.03 in 10.0 mi SE 6.9 mph - N/A   Partly Cloudy
6:53 AM 82.9 °F 88.0 °F 72.0 °F 69% 30.05 in 10.0 mi East 4.6 mph - N/A   Clear
7:53 AM 84.9 °F 91.4 °F 73.0 °F 67% 30.07 in 10.0 mi ESE 9.2 mph - N/A   Partly Cloudy
8:53 AM 84.9 °F 91.4 °F 73.0 °F 67% 30.08 in 10.0 mi ESE 10.4 mph 17.3 mph N/A   Partly Cloudy
9:06 AM 84.2 °F 89.6 °F 71.6 °F 66% 30.07 in 10.0 mi ESE 12.7 mph 20.7 mph N/A Thunderstorm Scattered Clouds
9:16 AM 80.6 °F 84.6 °F 71.6 °F 74% 30.09 in 1.8 mi SE 12.7 mph 28.8 mph 0.02 in Rain , Thunderstorm Heavy Rain
9:26 AM 78.8 °F - 71.6 °F 78% 30.11 in 1.0 mi SE 16.1 mph 28.8 mph 0.10 in Rain , Thunderstorm Light Rain
9:29 AM 78.8 °F - 73.4 °F 83% 30.11 in 0.8 mi SE 13.8 mph 28.8 mph 0.14 in Rain Heavy Rain
9:38 AM 77.0 °F - 71.6 °F 83% 30.10 in 1.0 mi SE 17.3 mph 32.2 mph 0.17 in Rain , Thunderstorm Rain
9:53 AM 77.0 °F - 71.1 °F 82% 30.10 in 2.0 mi SE 10.4 mph 26.5 mph 0.23 in Rain , Thunderstorm Rain
10:03 AM 78.8 °F - 71.6 °F 78% 30.10 in 4.0 mi SE 13.8 mph 18.4 mph 0.00 in Rain , Thunderstorm Light Rain
10:13 AM 78.8 °F - 71.6 °F 78% 30.10 in 7.0 mi SE 9.2 mph 20.7 mph 0.00 in Rain Light Rain
10:53 AM 79.0 °F - 71.1 °F 77% 30.11 in 9.0 mi ESE 10.4 mph 21.9 mph 0.03 in Rain Light Rain
11:53 AM 79.0 °F - 72.0 °F 79% 30.11 in 8.0 mi ESE 4.6 mph - 0.04 in Rain Light Rain
12:53 PM 82.9 °F 90.2 °F 75.0 °F 77% 30.09 in 10.0 mi ESE 6.9 mph - 0.00 in   Clear
1:53 PM 84.9 °F 92.1 °F 73.9 °F 69% 30.09 in 10.0 mi ESE 10.4 mph 16.1 mph N/A   Partly Cloudy
2:53 PM 88.0 °F 94.7 °F 72.0 °F 59% 30.08 in 10.0 mi ESE 12.7 mph 20.7 mph N/A   Scattered Clouds
3:53 PM 86.0 °F 93.8 °F 73.9 °F 67% 30.06 in 10.0 mi East 8.1 mph - N/A   Partly Cloudy
4:07 PM 86.0 °F 93.4 °F 73.4 °F 66% 30.06 in 10.0 mi East 8.1 mph - N/A Thunderstorm Clear
4:22 PM 80.6 °F 85.4 °F 73.4 °F 79% 30.07 in 0.8 mi ESE 18.4 mph 33.4 mph 0.08 in Rain , Thunderstorm Heavy Rain
4:30 PM 80.6 °F 85.4 °F 73.4 °F 79% 30.06 in 2.0 mi ESE 17.3 mph 29.9 mph 0.08 in Rain , Thunderstorm Light Rain
4:40 PM 77.0 °F - 71.6 °F 83% 30.06 in 1.2 mi East 12.7 mph 28.8 mph 0.14 in Rain Heavy Rain
4:50 PM 77.0 °F - 71.6 °F 83% 30.06 in 3.0 mi East 6.9 mph - 0.15 in Rain , Thunderstorm Light Rain
4:53 PM 78.1 °F - 71.1 °F 79% 30.06 in 4.0 mi ESE 5.8 mph - 0.16 in Rain , Thunderstorm Light Rain
5:07 PM 78.8 °F - 73.4 °F 83% 30.05 in 6.0 mi ESE 4.6 mph - 0.00 in Rain Light Rain
5:53 PM 82.0 °F 87.9 °F 73.9 °F 76% 30.05 in 8.0 mi SE 5.8 mph - 0.02 in Rain Light Rain
6:53 PM 82.9 °F 90.2 °F 75.0 °F 77% 30.04 in 10.0 mi Variable 4.6 mph - 0.01 in   Clear
7:26 PM 80.6 °F 85.4 °F 73.4 °F 79% 30.05 in 1.5 mi ESE 9.2 mph 24.2 mph 0.06 in Rain Heavy Rain
7:32 PM 80.6 °F 85.4 °F 73.4 °F 79% 30.05 in 0.5 mi ESE 6.9 mph - 0.18 in Rain Heavy Rain
7:38 PM 80.6 °F 85.4 °F 73.4 °F 79% 30.06 in 1.2 mi ESE 8.1 mph - 0.18 in Rain , Thunderstorm Light Rain
7:40 PM 80.6 °F 85.4 °F 73.4 °F 79% 30.06 in 4.0 mi ESE 9.2 mph - 0.18 in Rain , Thunderstorm Light Rain
7:53 PM 81.0 °F 86.2 °F 73.9 °F 79% 30.06 in 10.0 mi ESE 5.8 mph - 0.18 in Rain , Thunderstorm Light Rain
8:12 PM 82.4 °F 89.5 °F 75.2 °F 79% 30.06 in 5.0 mi ESE 6.9 mph - 0.02 in Rain , Thunderstorm Light Rain
8:38 PM 80.6 °F 85.4 °F 73.4 °F 79% 30.07 in 6.0 mi SE 10.4 mph 21.9 mph 0.06 in Rain Light Rain
8:53 PM 78.1 °F - 70.0 °F 76% 30.07 in 8.0 mi ESE 8.1 mph - 0.06 in Rain Light Rain
9:24 PM 80.6 °F 84.6 °F 71.6 °F 74% 30.08 in 10.0 mi East 8.1 mph 16.1 mph 0.01 in Rain , Thunderstorm Light Rain
9:39 PM 78.8 °F - 71.6 °F 78% 30.08 in 8.0 mi East 5.8 mph - 0.01 in Rain Rain
9:53 PM 80.1 °F 84.2 °F 73.0 °F 79% 30.08 in 10.0 mi East 4.6 mph - 0.02 in   Mostly Cloudy
10:53 PM 80.1 °F 83.8 °F 72.0 °F 76% 30.08 in 10.0 mi East 5.8 mph - 0.01 in   Mostly Cloudy
11:53 PM 82.0 °F 87.9 °F 73.9 °F 76% 30.08 in 10.0 mi East 4.6 mph - N/A   Clear